Location: B�retswil
(47.3376°N, 8.8534°E)
Time: 07:21:43
(UTC+00:00)

Cosmos 1503 Rocket - Pass Details

Date: 03 March 2021
Orbit: 753 x 790 km, 74.0° (Epoch: 13 April)

Event Time Altitude Azimuth Distance (km) Brightness Sun altitude
Rises 18:28:58 0° 337° (NNW) 3,231 7.6 -13.7°
Reaches altitude 10° 18:31:21 10° 336° (NNW) 2,297 6.9 -14.1°
Maximum altitude 18:36:34 83° 251° (WSW) 767 4.0 -15.0°
Drops below altitude 10° 18:41:43 10° 163° (SSE) 2,271 6.2 -15.8°
Sets 18:44:04 0° 162° (SSE) 3,191 7.0 -16.2°
